Theta_e
309 309 309 309 309 308 308 308 308 309 309 309 309 309 309 308 308 308 308 308 308 308 308 311 313 314 315 315 314 313 313 313 313 315 318 318 317 318 317 317 316 314 313 312 315 318 317 315 315 314 316 319 321 323 321 323 327 331 332 325 324 327 327 332 329 321 323 324 320 319 319 318 319 319 316 314 316 317 317 318 318 317 314 312 314 313 312 310
310 309 310 309 309 309 309 309 309 309 309 309 309 309 309 308 309 308 308 307 307 308 307 308 311 313 314 315 315 314 314 313 314 316 317 317 317 319 318 316 315 313 312 313 316 317 316 317 315 315 318 322 323 322 322 324 325 330 333 326 327 332 331 328 323 320 320 319 320 321 320 318 319 321 316 316 320 317 316 318 317 317 314 311 310 309 309 308
309 309 309 309 309 309 309 309 309 309 309 309 309 309 309 309 309 308 308 308 308 307 307 308 308 312 313 314 315 314 314 316 321 322 318 317 318 319 319 317 314 312 311 313 318 318 316 317 314 316 319 321 323 323 325 324 323 329 329 326 333 334 327 324 320 319 319 318 320 319 318 318 318 318 315 316 320 318 318 317 317 318 316 313 310 307 307 307
309 309 309 309 309 309 309 309 309 309 309 309 309 308 309 308 308 308 308 308 308 307 307 308 307 309 312 315 314 314 318 322 326 324 319 319 319 319 319 317 313 311 311 313 316 317 316 316 314 317 318 319 323 325 327 325 323 326 324 326 333 328 322 323 320 320 320 319 319 319 317 317 318 317 316 317 318 317 317 316 316 318 316 314 310 307 306 306
310 310 309 309 309 309 309 309 309 309 308 309 308 308 308 308 308 308 308 308 308 308 307 308 308 307 311 315 314 316 319 321 322 321 319 320 320 320 319 316 313 311 311 312 314 315 314 315 314 318 319 320 323 324 327 327 322 324 322 323 327 323 321 322 320 321 321 318 318 318 317 317 318 317 317 318 317 317 317 316 315 316 316 314 310 307 305 305
310 310 310 310 309 309 309 309 309 309 309 309 308 308 308 308 308 308 308 308 308 308 308 308 308 307 311 315 314 317 319 316 319 320 318 317 319 319 317 314 312 310 311 313 314 314 315 316 316 319 320 320 322 322 324 324 321 323 323 321 322 321 321 319 319 322 320 316 317 317 316 316 316 317 318 317 316 316 318 319 318 316 314 311 309 307 307 307
311 311 310 310 310 310 309 309 309 309 309 309 309 309 309 308 308 308 308 308 308 308 308 308 308 308 312 315 316 320 324 322 320 319 317 316 317 317 314 312 310 310 312 313 314 315 317 317 317 320 320 320 321 320 321 320 320 322 323 322 320 320 319 318 318 321 320 316 318 317 315 315 316 317 317 317 316 315 317 319 319 315 311 310 310 309 308 308
312 311 311 310 310 310 310 310 309 309 309 309 309 309 309 309 308 308 308 308 308 308 308 308 309 309 310 317 323 326 326 324 318 318 317 314 314 314 312 311 310 310 311 313 314 316 317 318 319 319 319 321 320 320 320 318 319 321 322 320 319 318 319 318 318 320 319 317 317 316 315 316 316 315 315 315 315 315 315 316 317 316 315 314 312 310 309 308
312 312 311 311 311 310 310 310 309 309 309 309 309 309 309 309 309 309 309 308 308 308 308 308 309 310 311 316 323 323 322 322 318 318 317 313 312 311 310 311 310 311 311 313 314 314 316 319 320 318 319 321 320 320 319 318 320 321 320 319 318 318 318 317 317 317 317 317 316 315 316 316 314 314 314 314 314 314 315 315 316 315 317 317 313 311 310 309
312 312 311 311 311 310 310 310 310 309 309 309 309 310 310 310 310 310 309 309 309 308 308 308 309 311 312 316 320 319 318 321 320 319 317 314 312 310 310 311 311 311 312 314 314 313 316 318 320 319 318 319 318 319 319 319 319 319 317 317 317 317 316 315 316 316 315 317 316 316 316 315 313 314 314 315 314 314 314 314 315 315 316 316 314 311 310 310
313 312 312 311 310 310 309 308 308 308 308 308 308 309 309 310 310 310 310 310 309 309 308 309 309 311 314 318 322 320 317 318 318 317 316 315 313 312 311 312 313 312 312 314 313 313 314 316 318 318 317 317 318 319 320 318 316 316 316 317 317 316 316 315 315 315 314 315 317 315 315 315 314 314 314 314 315 316 317 316 314 314 315 315 314 312 310 310
314 313 313 312 311 309 309 308 308 307 307 307 307 307 307 308 308 308 310 310 310 309 308 310 310 311 315 319 321 319 315 317 317 315 314 314 314 314 313 313 313 313 313 314 315 315 315 316 316 317 317 317 317 317 317 315 314 315 315 316 317 315 315 315 315 315 314 316 317 314 315 316 314 315 315 314 314 315 316 317 316 314 314 314 313 312 311 309
314 314 313 313 311 310 310 309 309 309 308 308 307 307 307 307 307 307 308 309 310 309 309 311 311 311 316 321 320 317 316 316 316 315 314 313 313 314 313 313 313 312 313 315 315 316 317 316 316 318 318 317 317 316 314 314 315 316 315 316 317 316 317 316 315 316 314 315 316 314 315 317 316 315 314 313 314 313 314 316 316 315 314 314 313 312 312 310
314 314 313 313 312 311 311 311 311 310 309 309 309 308 308 307 307 306 306 307 308 309 310 311 312 314 318 322 317 316 317 316 315 315 314 313 313 313 313 313 313 311 311 312 313 315 316 314 315 316 316 316 317 315 315 316 316 316 315 317 317 317 319 317 316 318 316 314 315 315 315 316 316 315 314 314 314 313 314 314 314 315 314 314 314 313 312 311
314 314 313 312 312 312 312 312 312 311 311 310 310 309 309 308 307 306 306 306 307 309 311 311 314 317 320 320 317 316 316 315 316 316 314 314 313 313 313 311 311 311 311 312 312 313 314 313 314 316 316 315 314 315 318 320 319 317 316 319 321 319 318 317 317 317 316 314 312 315 316 315 315 315 314 314 315 313 313 314 313 314 314 314 314 313 312 311
314 314 313 312 312 312 313 313 312 312 311 311 311 311 310 309 308 307 306 306 307 309 311 312 315 317 317 316 316 316 315 314 315 315 315 314 313 314 314 312 311 312 312 312 312 312 312 313 314 316 316 315 316 317 319 321 322 320 316 318 321 319 316 317 319 317 316 316 312 314 316 316 316 317 316 315 316 315 313 314 314 313 313 313 313 313 312 312
314 313 313 312 312 313 313 314 313 312 312 312 312 311 312 310 309 308 307 307 309 310 312 316 317 314 313 314 314 316 315 314 315 315 314 313 314 315 313 312 311 311 312 311 312 311 312 314 314 315 316 316 318 320 319 320 321 320 318 318 319 318 316 317 321 318 316 316 314 313 314 315 316 317 317 317 317 316 314 314 315 314 313 312 313 312 312 312
314 313 313 312 313 313 314 314 314 313 312 312 311 311 311 311 310 309 308 310 314 313 313 316 316 314 315 316 315 317 317 315 315 315 314 314 314 315 313 312 311 311 312 312 312 312 312 315 316 318 318 316 317 318 319 319 316 318 320 320 318 317 316 316 318 317 315 315 315 314 313 313 314 313 314 314 315 315 315 315 314 314 314 313 312 312 312 312
314 313 313 313 313 314 315 315 314 313 311 311 311 310 313 315 314 313 312 314 318 316 315 317 317 316 316 318 317 317 318 316 316 316 314 314 314 314 313 312 313 312 313 316 315 314 314 316 317 319 319 316 315 315 316 316 314 316 318 318 317 316 314 314 315 317 316 315 316 315 314 313 313 312 312 312 312 313 313 314 314 314 314 313 312 312 312 312
314 314 313 314 314 314 315 315 314 313 311 310 311 312 317 320 318 316 314 317 320 317 316 316 317 317 316 318 318 317 318 316 316 316 314 313 312 313 313 312 314 314 315 320 320 316 315 317 319 320 317 315 315 314 314 314 314 315 316 316 316 315 314 314 315 318 316 316 317 317 315 314 314 313 313 313 312 313 313 313 313 312 313 313 313 313 313 313
315 314 314 314 314 315 315 315 314 313 310 310 312 315 317 317 316 315 311 313 315 313 316 315 313 315 315 316 317 316 318 316 315 315 314 312 311 312 313 312 314 316 315 318 322 318 315 317 318 318 315 314 316 315 314 314 314 314 315 315 315 316 316 315 316 318 316 315 316 316 315 314 314 314 313 313 313 313 313 313 313 312 312 313 313 313 313 313
315 315 315 314 315 315 315 315 314 313 311 310 312 315 313 309 310 310 308 312 313 310 312 314 312 313 313 314 316 315 316 315 315 316 314 311 311 313 313 312 314 316 315 315 317 317 317 317 316 315 315 315 315 316 315 314 315 315 315 316 317 317 316 315 316 317 314 315 318 318 315 313 313 313 312 313 313 313 313 313 314 313 313 312 313 313 312 313
316 316 315 315 315 315 315 315 314 313 313 311 312 313 310 307 307 308 310 314 315 311 311 312 312 313 312 312 314 315 315 314 315 318 315 311 311 313 313 312 313 315 316 315 315 315 317 318 315 314 315 315 315 315 315 315 315 316 316 316 317 316 316 315 315 318 314 314 319 319 315 313 312 312 312 313 312 313 313 314 314 314 315 314 313 314 313 313
316 316 316 316 315 316 315 315 315 314 313 313 312 311 309 307 306 308 314 317 315 314 312 310 309 312 313 312 313 315 316 314 313 316 314 312 312 313 313 312 312 314 315 314 314 314 315 317 318 316 315 316 316 315 316 316 314 316 317 316 316 316 316 315 315 318 317 317 317 315 315 314 314 314 314 314 314 313 313 313 314 314 314 315 315 315 314 314
317 316 316 316 316 316 315 316 316 314 314 314 312 311 309 307 306 308 314 318 317 316 313 310 310 311 312 312 313 314 313 312 313 314 312 312 312 313 312 311 312 313 313 313 314 313 312 315 319 318 318 318 318 317 318 318 316 315 318 319 317 316 316 316 316 316 318 322 319 315 318 318 318 318 315 315 316 315 314 314 314 314 313 314 314 314 315 315
318 317 317 317 317 316 316 317 316 315 315 314 311 311 309 306 306 308 312 317 318 317 314 312 313 313 312 312 312 312 312 312 312 312 312 312 312 313 313 312 313 313 313 313 313 313 313 314 317 318 320 321 320 320 322 321 316 315 321 324 319 317 318 318 319 318 322 327 320 316 321 321 319 320 317 317 317 316 316 315 314 314 313 313 314 314 314 316
320 319 318 318 317 317 317 318 316 315 316 315 312 311 309 307 307 308 311 317 319 318 316 314 312 312 312 311 311 311 313 313 312 311 311 311 311 312 313 313 313 312 313 315 315 317 316 314 318 319 319 321 320 319 321 321 317 316 324 329 323 321 322 321 321 323 326 325 318 317 321 321 319 318 318 319 319 319 317 316 315 314 314 313 313 314 313 315
322 321 320 319 318 317 317 317 315 315 315 314 312 310 309 308 308 310 313 318 320 318 318 315 311 311 313 311 311 312 311 311 313 312 308 309 311 312 313 312 312 313 315 316 315 319 320 318 321 322 319 321 319 317 320 321 318 318 322 326 324 323 323 322 320 323 326 322 318 320 320 320 319 317 317 317 316 317 316 316 316 315 315 314 313 314 313 315
324 323 321 320 319 318 317 317 315 315 315 312 310 309 308 307 307 312 316 317 319 317 315 314 311 313 314 312 312 314 311 310 313 311 308 309 311 311 312 312 311 313 314 314 314 316 319 318 319 323 321 319 320 324 325 322 320 320 321 325 329 328 324 321 318 321 325 322 319 322 320 319 319 316 317 316 315 316 315 315 315 315 316 315 314 314 313 314
326 324 324 322 319 318 318 317 316 317 315 311 309 308 308 309 310 313 316 315 317 317 313 311 312 314 315 314 314 313 312 311 310 310 310 311 311 310 311 310 312 316 316 315 315 315 315 313 315 321 320 320 324 323 319 320 319 318 321 325 329 331 329 327 327 323 322 320 320 323 320 318 318 318 318 316 315 316 314 314 315 314 316 315 314 314 314 314
325 325 324 322 320 320 317 316 317 317 314 310 309 309 311 315 315 316 317 315 315 318 314 312 313 314 314 315 317 314 312 312 311 312 313 312 311 311 311 311 314 318 319 317 316 315 313 312 316 321 320 321 322 317 316 319 318 318 325 326 325 329 330 328 326 321 319 319 320 322 320 317 317 317 316 316 315 315 314 315 316 315 315 315 315 315 314 314
324 324 324 321 321 320 317 317 317 316 315 311 309 313 316 316 316 317 318 316 317 319 318 319 317 315 314 315 317 316 314 315 312 312 315 315 315 313 312 314 317 317 319 321 318 316 316 314 315 318 318 320 320 318 322 322 317 318 325 323 321 324 324 322 323 323 322 320 319 319 318 317 316 316 316 316 317 316 314 315 316 316 316 316 316 315 314 316
323 323 322 321 321 320 319 318 316 316 317 314 314 321 321 319 322 321 317 317 321 320 319 323 320 317 317 316 319 320 316 317 314 311 313 315 315 314 312 316 319 317 320 322 319 319 323 320 316 314 315 318 319 318 320 321 318 318 321 322 321 321 320 320 326 327 321 321 321 317 317 318 316 318 319 317 317 318 316 315 316 316 318 318 316 315 316 319
322 322 321 321 320 320 320 318 316 317 316 314 319 324 321 321 326 323 319 318 319 318 318 322 320 318 318 318 324 322 316 319 317 311 314 315 315 317 316 315 316 316 317 319 320 323 323 320 317 317 319 319 316 315 317 322 321 316 317 321 319 324 328 324 324 323 318 326 328 317 318 323 318 319 324 319 315 316 315 315 315 315 317 318 316 316 319 322
322 321 321 320 319 319 319 318 318 317 315 315 319 321 319 324 325 322 324 323 318 317 316 319 320 319 320 323 327 324 317 320 319 314 316 316 317 322 322 316 312 314 316 317 322 323 318 319 319 317 320 318 315 315 315 319 323 317 318 319 315 322 328 319 319 321 317 324 325 317 322 328 318 315 319 317 316 316 315 314 314 314 315 316 316 319 323 322
320 321 320 319 318 319 319 318 318 316 315 317 319 318 319 325 326 323 323 320 315 315 316 318 321 322 323 326 328 325 318 319 320 317 317 316 317 322 321 317 313 313 314 317 322 321 316 322 322 314 315 316 315 317 315 317 322 318 317 319 316 319 321 317 322 323 317 318 319 316 321 322 317 316 316 315 315 316 316 314 313 313 315 315 316 320 324 322
319 319 319 318 318 319 319 318 317 315 315 317 319 319 319 321 323 322 321 316 313 314 316 318 321 323 325 324 326 326 321 320 320 318 319 318 317 319 318 318 315 312 312 315 320 322 318 319 321 317 317 315 311 313 316 316 317 318 319 318 316 319 321 321 325 325 320 319 319 317 318 316 316 318 318 318 317 316 317 316 313 313 313 314 314 319 324 321
317 318 318 318 319 319 319 318 315 313 314 317 319 321 320 319 319 318 318 317 316 318 319 319 319 321 323 321 323 326 323 321 320 320 322 320 318 319 318 318 318 314 312 312 316 323 321 316 319 320 319 316 311 312 316 314 312 316 320 319 319 322 323 323 323 322 321 320 319 318 317 316 315 315 316 317 317 318 318 316 314 313 312 313 312 316 321 318
316 318 318 318 318 319 319 317 314 313 315 317 319 320 321 320 318 316 317 316 317 319 319 320 320 320 320 320 320 322 323 322 321 321 321 319 319 320 318 317 318 315 312 312 314 319 318 316 319 318 314 315 313 314 319 318 312 313 315 317 318 319 323 324 321 321 321 319 319 319 318 318 316 315 315 315 316 317 316 314 314 313 312 312 312 314 318 318
316 318 319 318 318 318 317 314 313 314 316 318 318 319 319 318 318 317 316 316 317 318 316 318 320 318 319 320 318 318 320 322 322 321 320 319 319 319 317 316 318 318 315 313 313 315 316 316 317 315 311 313 314 314 318 319 316 314 315 318 316 314 320 322 318 318 319 318 318 319 319 318 315 316 315 314 316 318 317 316 314 313 312 312 313 314 317 318
316 319 318 317 317 317 314 313 314 315 317 318 318 317 316 316 317 317 316 316 318 318 316 315 317 317 316 318 318 317 318 319 319 319 319 319 317 317 316 313 315 319 318 316 316 316 317 318 317 316 314 314 315 315 316 316 317 316 316 317 316 315 318 318 316 318 318 317 317 317 318 317 315 315 314 313 315 316 317 318 316 314 314 314 315 315 315 316
316 318 317 316 316 315 313 315 315 315 316 317 318 317 316 315 317 317 316 316 316 316 314 312 313 315 315 316 317 317 318 319 320 319 319 318 317 318 316 313 314 315 314 317 320 319 319 318 317 317 317 317 317 316 315 315 314 315 316 316 315 315 316 318 318 317 316 316 316 316 317 317 314 315 315 313 313 313 315 317 315 315 315 316 315 314 315 317
315 316 314 315 315 314 315 317 316 314 315 315 316 316 316 316 317 317 316 316 316 316 315 314 313 313 314 315 315 316 318 320 320 321 320 319 318 317 317 316 317 315 313 318 321 318 317 317 316 317 318 320 319 316 315 314 312 314 317 315 314 315 315 316 316 315 315 316 315 316 317 316 315 315 315 314 313 313 314 314 314 314 313 314 315 315 317 319
313 314 314 313 313 314 317 320 317 316 315 314 314 315 314 315 315 316 316 317 317 317 316 316 315 314 314 315 315 316 317 319 320 320 319 319 319 318 317 317 317 316 316 319 320 317 317 319 319 319 319 320 319 317 315 315 313 315 318 317 316 316 315 315 315 314 315 315 315 316 316 315 315 315 314 313 313 312 312 313 313 314 314 315 317 319 320 320
310 312 314 313 312 313 317 319 318 317 316 315 315 315 314 315 315 315 316 315 316 316 316 317 318 316 315 316 316 316 317 318 319 319 318 318 319 317 317 317 317 316 317 319 320 318 318 319 319 319 319 320 319 319 318 317 315 314 316 317 316 316 316 315 315 315 316 316 316 316 316 315 313 313 313 313 312 312 312 312 312 313 314 315 317 319 320 320
308 311 313 313 312 312 314 315 317 318 316 316 316 315 315 316 315 315 315 315 315 315 315 317 317 315 315 316 316 316 316 316 317 318 318 318 318 317 317 317 317 316 316 316 318 318 317 316 317 317 318 319 318 318 318 318 317 315 316 316 315 315 314 314 315 316 316 316 316 316 316 315 315 314 314 313 313 313 312 312 312 311 312 313 314 315 316 315
306 308 312 314 313 313 313 314 316 317 316 316 316 316 316 315 315 315 315 315 315 315 315 316 315 314 315 316 316 316 316 316 316 316 316 316 316 317 317 315 315 316 314 314 316 318 315 313 315 315 315 317 317 317 317 317 316 316 317 317 316 315 314 314 315 314 314 316 316 315 315 316 316 314 313 313 313 313 313 313 312 311 311 312 312 313 314 313
304 305 308 310 311 313 313 312 312 313 315 316 315 315 316 316 316 316 315 314 315 315 316 316 315 315 315 315 316 317 316 317 317 315 315 315 314 315 315 314 315 315 314 312 313 315 314 313 315 315 314 315 315 315 315 315 315 316 316 316 316 316 316 315 314 313 313 315 315 314 315 316 315 313 313 313 313 313 313 312 312 312 312 311 311 312 312 311
302 303 304 305 306 308 308 306 306 308 310 312 313 314 314 315 315 315 314 315 315 315 315 316 316 316 315 315 316 316 316 317 318 317 316 315 315 315 314 314 315 314 313 311 311 313 314 314 314 315 315 314 314 314 314 314 315 315 316 315 315 315 315 315 314 314 313 314 314 313 314 314 313 313 313 312 312 313 313 312 312 312 311 311 311 311 311 311
301 302 302 302 302 302 302 302 304 306 307 309 310 311 311 312 313 312 312 313 314 313 314 315 315 313 312 313 313 314 315 315 314 313 312 311 312 314 314 315 316 314 312 311 311 311 312 314 315 315 315 314 315 314 314 314 315 315 315 315 314 315 314 314 314 314 314 314 313 313 313 313 312 311 312 312 312 312 312 312 312 311 311 312 311 311 311 311
299 300 300 300 299 300 301 302 304 305 306 308 309 310 310 311 310 309 309 310 312 312 311 310 309 308 307 308 309 310 309 307 306 306 306 306 307 309 311 313 315 315 313 312 312 311 311 313 314 315 316 316 315 315 314 314 314 314 315 315 314 315 314 314 314 314 314 314 314 314 314 313 312 311 311 311 311 311 311 311 311 311 311 311 311 311 311 310
297 298 299 299 299 300 301 301 302 303 304 305 307 307 308 307 305 305 307 309 310 309 307 305 305 305 306 307 307 306 303 303 303 303 303 303 304 306 308 310 312 314 313 312 312 311 311 312 313 315 316 316 316 316 315 314 315 315 315 314 314 314 314 314 314 314 314 314 314 315 314 313 312 312 312 312 312 311 311 311 311 311 311 311 311 311 310 310
Wind_Speed
12 12 12 12 12 12 12 12 12 12 12 12 13 13 13 13 14 14 14 14 13 13 13 11 10 9 8 8 8 10 10 10 11 11 10 11 9 7 7 6 5 6 4 3 5 6 3 3 7 8 5 3 2 1 2 2 2 3 3 2 3 3 4 5 4 3 2 2 4 4 4 6 3 3 0 1 1 2 3 3 4 2 4 3 7 15 25 33
12 13 13 14 14 13 13 13 13 12 12 12 12 12 12 12 13 13 14 14 14 14 14 13 11 10 9 8 8 8 9 10 11 14 19 18 14 12 10 8 7 7 5 4 5 6 4 3 7 6 3 1 2 1 2 2 2 3 3 2 4 5 6 5 4 4 2 3 4 4 6 6 5 4 2 2 5 3 4 5 3 4 2 4 10 20 28 32
13 13 14 14 15 15 15 15 14 14 13 13 12 12 12 12 12 12 13 14 14 14 14 14 13 11 11 9 8 7 7 6 7 11 16 16 17 17 13 11 8 7 6 5 5 5 4 3 4 5 4 2 3 2 2 2 1 2 3 2 6 7 5 6 4 2 2 3 3 2 3 4 5 4 3 4 6 5 8 7 5 8 8 6 8 17 25 27
13 14 14 14 15 16 16 16 16 15 15 14 14 13 13 12 12 12 12 12 13 13 13 13 13 12 10 10 7 5 4 4 3 5 7 7 11 16 15 12 9 7 7 6 6 6 6 6 3 4 4 3 3 2 2 4 3 2 4 5 8 4 4 8 6 2 2 1 3 1 1 3 5 4 4 4 3 7 9 9 10 12 12 11 9 14 21 22
13 14 14 15 15 16 16 16 17 17 16 16 15 15 14 14 13 12 11 12 12 12 13 13 13 12 10 8 5 3 3 4 3 3 4 3 6 12 15 13 10 8 7 7 7 4 5 5 2 1 2 2 3 1 4 7 4 2 5 8 8 4 5 8 6 3 3 3 2 1 2 5 3 3 5 7 7 10 7 9 12 13 12 14 15 15 17 17
13 14 14 15 15 16 16 17 17 17 17 17 16 16 15 15 14 13 12 12 12 11 12 12 13 11 7 4 2 1 2 1 4 4 4 2 5 11 12 12 11 8 8 8 6 2 2 2 1 0 1 2 3 4 6 6 6 4 6 6 8 7 6 6 4 4 3 2 3 3 3 3 2 5 6 9 15 13 6 8 10 11 12 16 18 16 15 16
14 14 14 15 15 16 17 17 18 18 18 18 17 16 15 15 15 14 13 12 12 12 12 12 12 9 4 1 1 1 2 5 9 7 6 2 5 10 11 11 10 9 9 9 6 4 3 2 2 3 2 3 5 6 7 4 6 7 7 5 7 7 7 7 6 5 5 6 7 3 1 3 6 7 3 9 18 14 7 7 8 7 8 14 16 15 17 18
15 15 16 16 16 17 17 18 18 19 19 19 19 18 16 15 15 14 14 13 13 13 13 13 12 6 3 3 2 2 1 8 12 9 6 4 6 10 11 10 10 10 10 11 10 6 3 3 5 4 2 5 4 4 4 2 2 7 7 5 5 5 7 7 6 6 6 6 5 1 5 9 10 4 5 14 17 11 8 8 9 6 5 11 14 16 16 16
15 16 17 17 17 18 18 18 19 19 20 20 20 19 18 17 16 15 14 13 12 12 13 12 11 5 4 4 3 2 4 8 10 8 7 6 8 10 11 9 9 10 9 11 12 7 3 4 6 5 3 4 3 4 2 1 3 7 7 5 4 6 7 7 8 9 7 5 4 4 10 11 6 3 9 19 18 12 8 8 11 9 7 9 13 15 16 15
15 16 17 18 18 18 18 19 19 20 21 21 21 21 20 18 17 17 15 14 12 11 12 11 9 4 4 4 4 1 6 7 7 7 8 7 9 11 12 10 9 11 9 8 11 9 6 5 5 4 3 3 3 4 2 2 4 4 4 5 6 8 8 6 8 11 7 5 7 9 13 10 2 2 9 17 13 9 9 10 11 9 11 11 11 12 15 15
15 16 17 18 18 18 19 19 20 20 21 21 22 21 21 20 19 18 17 15 12 11 10 8 7 4 4 3 4 4 6 6 7 7 8 8 11 12 13 12 11 12 10 7 10 12 10 8 3 4 1 2 2 5 3 3 3 2 3 7 11 8 9 9 10 12 6 5 9 11 9 8 0 4 15 19 7 5 9 11 11 10 12 11 11 11 11 12
16 16 18 19 19 19 19 20 20 20 21 21 21 21 20 20 19 18 19 17 14 12 9 7 6 5 4 1 5 10 9 8 9 8 8 9 10 12 12 13 13 13 11 7 7 10 10 7 3 4 4 1 1 4 3 3 2 3 2 5 13 7 9 15 13 11 7 4 7 8 3 9 6 11 21 20 7 4 7 9 10 11 12 11 10 10 9 12
15 16 18 19 20 20 21 21 21 21 21 21 20 20 19 19 18 17 18 17 14 12 9 6 5 6 4 2 7 13 14 14 12 10 10 10 9 11 12 13 13 13 13 9 7 6 6 5 5 5 4 1 2 2 1 2 2 4 0 1 9 7 8 14 8 9 8 5 9 9 2 9 12 17 20 16 9 8 9 11 11 10 10 10 10 9 10 12
15 17 17 19 20 20 21 21 21 22 22 22 21 20 19 18 17 16 16 17 14 10 8 5 5 6 4 5 8 11 14 15 14 13 13 12 10 10 11 12 13 13 12 11 9 6 5 4 3 2 2 2 3 4 4 4 1 3 2 2 4 2 8 10 3 4 4 3 9 10 4 10 13 16 14 11 10 9 10 13 12 10 9 9 9 10 12 12
15 16 17 18 19 19 20 20 21 22 22 23 22 20 19 18 17 15 15 16 12 9 6 5 7 5 1 7 9 8 11 12 15 18 15 13 12 9 10 12 11 10 9 9 8 5 5 3 3 1 3 2 0 3 4 4 3 1 1 4 3 4 8 11 6 6 6 3 5 9 4 11 15 15 12 9 9 10 11 13 11 11 11 10 10 10 12 12
15 16 17 17 18 18 19 20 21 22 23 23 22 21 19 18 17 16 16 14 10 8 6 4 8 6 1 5 4 5 9 10 13 17 15 14 14 9 8 10 8 7 7 6 5 4 5 4 1 2 1 2 2 2 2 4 5 2 3 6 5 5 6 8 7 4 8 5 4 8 6 7 11 11 11 8 7 10 11 12 12 12 12 11 10 10 11 11
14 15 16 16 17 18 18 20 21 23 24 24 23 21 20 18 17 17 14 8 4 6 7 3 3 4 3 3 3 5 8 11 12 13 15 15 14 9 8 6 5 6 5 3 4 3 3 3 1 1 0 2 3 5 3 3 6 4 3 5 6 7 6 6 7 3 6 8 7 10 8 11 12 8 9 8 6 8 10 12 12 11 11 11 10 10 11 11
14 15 15 15 17 17 18 20 21 23 25 24 22 22 20 17 13 10 4 6 5 4 3 3 1 2 4 5 6 4 4 9 11 13 16 15 13 11 9 4 3 6 4 1 1 3 2 0 2 1 2 3 4 5 4 7 8 4 5 5 5 7 7 10 8 2 6 6 6 8 9 15 17 13 12 13 8 6 9 11 11 11 12 11 10 11 12 12
13 14 14 15 16 17 19 20 22 24 24 24 21 18 15 9 4 1 5 9 6 4 2 4 4 3 4 6 6 3 3 7 9 11 14 14 12 12 8 2 3 6 4 1 2 3 4 1 3 2 4 7 7 8 11 13 10 8 8 6 7 7 8 12 11 5 8 5 6 10 12 15 18 17 15 16 13 10 11 10 9 11 11 11 11 11 12 12
13 14 14 15 15 17 18 20 23 23 21 22 22 14 6 4 3 2 2 3 5 4 3 5 9 5 4 3 3 4 4 6 7 7 12 14 12 8 4 0 4 2 3 4 3 2 5 4 3 6 11 12 9 11 15 14 10 9 9 9 10 9 11 13 11 7 8 6 8 12 15 16 17 19 17 14 12 11 14 12 11 12 12 12 13 14 14 15
13 13 14 15 16 17 18 21 22 18 17 20 18 9 2 3 2 2 3 5 10 12 9 8 12 10 8 4 7 9 5 4 5 5 11 14 12 8 3 3 4 3 5 5 3 2 4 6 8 13 16 12 8 11 13 12 10 11 10 10 10 8 12 14 9 7 6 5 8 11 14 16 16 18 17 11 9 12 15 15 15 16 14 13 14 17 16 15
12 12 14 15 16 17 18 21 19 13 17 19 14 6 2 4 2 1 1 4 9 12 12 12 13 11 11 11 11 10 4 6 7 4 12 13 9 7 3 5 6 5 4 4 3 3 3 6 12 17 13 8 7 8 9 10 10 10 8 8 8 6 11 12 8 7 4 5 8 9 11 13 14 17 16 12 11 12 15 16 18 17 13 13 15 16 17 15
12 12 14 14 16 17 17 21 15 10 18 17 10 5 4 6 3 0 1 2 8 8 8 10 12 9 11 14 12 12 8 10 9 6 16 15 5 6 5 7 8 4 5 8 8 6 5 7 14 15 9 8 11 8 7 8 8 8 9 8 8 7 8 10 6 4 3 4 6 7 8 9 9 12 15 15 14 13 15 16 18 17 14 16 18 15 15 16
12 13 13 13 16 16 17 20 11 9 18 12 5 5 7 7 2 0 1 2 5 7 7 11 11 8 14 14 12 16 10 8 6 6 17 17 5 3 5 6 6 4 8 12 13 12 10 8 9 11 10 11 13 10 8 7 8 11 10 8 11 11 12 13 8 4 4 4 5 6 9 8 8 13 16 13 13 13 14 16 17 17 15 16 18 16 16 16
12 13 13 13 15 15 18 16 7 12 17 6 4 8 11 8 3 2 2 2 4 5 6 7 6 7 14 11 10 12 4 3 5 5 16 18 9 5 3 4 5 8 12 12 11 11 11 8 6 8 10 12 11 9 8 8 9 11 8 11 15 15 13 13 8 6 5 6 4 3 8 8 8 13 16 10 8 10 10 13 17 17 16 14 16 18 17 14
12 13 13 13 14 15 15 8 7 17 13 2 4 11 11 8 4 2 1 2 4 4 2 2 3 4 7 5 6 6 3 5 4 5 14 16 11 6 3 3 2 7 9 7 6 4 8 9 8 10 11 11 9 7 8 11 9 10 6 11 14 12 11 11 6 3 4 6 4 3 3 8 5 8 11 9 8 11 9 11 15 14 13 12 13 16 15 11
12 12 13 13 13 13 9 4 12 16 5 1 9 12 11 8 4 4 1 3 4 3 2 1 0 1 3 2 4 6 1 4 1 3 7 7 6 4 3 6 3 4 5 2 4 3 6 8 9 13 12 8 8 9 10 11 8 8 3 7 9 8 9 7 4 4 4 5 4 3 2 8 11 7 10 11 11 12 12 12 13 12 12 13 14 15 14 11
13 12 12 13 13 11 7 8 13 10 3 7 13 11 10 6 3 2 1 3 4 3 2 2 0 1 1 1 2 5 2 1 3 1 2 2 1 2 5 8 5 4 3 4 6 5 3 6 8 11 8 7 8 9 9 10 8 6 1 4 4 4 4 1 1 3 2 5 5 4 5 4 15 8 10 13 12 12 14 15 14 13 14 14 14 15 15 12
14 12 13 13 12 11 10 10 10 7 6 10 10 8 7 4 2 3 2 3 3 1 1 0 1 2 2 2 2 2 1 2 1 3 3 1 0 2 4 5 3 4 4 4 8 6 1 3 6 8 6 8 6 3 5 8 7 3 4 3 4 4 3 5 1 1 3 5 6 5 7 3 15 9 8 8 9 10 13 14 14 14 14 14 13 14 13 11
15 13 14 13 11 11 9 9 10 7 6 8 8 6 4 2 2 3 3 4 2 2 0 1 1 0 4 4 3 4 2 1 1 1 2 1 2 4 1 1 2 3 5 4 8 8 2 1 2 4 4 6 4 3 2 3 3 1 5 5 6 5 5 4 1 4 2 9 6 9 12 7 9 6 7 6 6 11 12 9 11 12 12 13 13 12 11 10
17 16 17 16 15 13 6 6 9 5 2 6 6 3 1 2 3 2 7 3 1 2 1 1 2 2 4 5 2 2 4 2 1 2 1 1 2 3 1 0 2 2 3 5 7 8 5 2 3 3 2 4 6 3 2 3 2 4 4 4 4 5 4 5 4 5 2 9 5 12 14 11 10 6 2 2 4 8 11 9 10 13 12 14 13 10 10 10
18 18 18 19 20 16 11 6 6 7 2 3 5 3 2 2 1 6 5 2 1 3 2 2 3 2 4 3 2 2 4 2 3 5 4 3 3 3 3 4 4 1 4 5 4 5 6 8 7 2 1 5 5 2 4 6 3 5 5 4 1 4 3 3 4 0 4 7 5 10 9 8 13 7 2 7 6 5 9 9 11 13 13 14 12 10 9 8
17 17 18 21 21 20 18 12 9 9 5 1 4 4 4 1 5 6 4 2 3 3 2 3 4 4 3 1 3 4 3 2 4 4 3 4 3 4 5 5 6 2 4 5 2 2 4 7 5 3 3 5 9 5 3 3 3 6 6 6 4 3 1 2 4 3 5 7 6 6 7 5 10 5 7 13 12 11 11 11 13 13 13 14 12 10 8 7
18 16 17 21 22 23 23 18 15 12 6 5 5 4 4 4 6 2 4 5 5 3 0 1 2 4 3 3 5 5 3 4 5 5 3 3 2 4 5 6 7 4 2 3 2 2 4 9 5 9 4 7 12 13 11 5 4 7 6 6 5 5 4 4 5 7 7 6 6 3 6 5 7 3 7 11 11 10 10 12 12 11 11 11 9 9 7 7
15 16 16 19 21 23 23 22 20 17 9 7 5 3 4 7 4 1 3 5 4 4 4 2 2 3 4 4 4 3 4 5 3 5 4 4 4 5 4 6 10 7 3 3 3 4 6 10 7 7 2 9 12 11 10 6 1 4 5 5 4 5 7 5 6 7 3 3 6 3 5 6 5 6 8 8 9 8 8 11 10 10 11 9 8 9 8 7
11 13 15 17 21 23 24 24 22 19 11 7 4 3 6 7 4 3 3 3 2 3 5 5 1 3 4 3 4 5 5 4 2 4 3 4 4 5 5 4 10 12 9 6 4 3 5 7 3 2 2 4 7 4 4 5 2 3 4 4 5 4 7 5 6 4 1 4 8 6 7 6 6 10 8 7 10 9 7 9 9 11 13 11 10 10 8 7
8 9 10 14 20 21 23 26 24 19 10 5 4 6 6 5 4 5 2 1 1 2 3 4 2 4 4 2 3 4 3 3 3 4 2 3 3 5 6 5 8 15 15 10 5 5 7 6 3 5 3 4 3 2 1 2 3 6 4 6 2 3 2 3 1 2 2 7 8 9 14 10 6 9 5 2 5 8 7 10 11 12 14 13 12 10 8 8
5 6 7 13 19 19 22 28 25 17 6 2 7 9 6 4 4 5 3 3 4 2 2 2 4 3 3 3 3 2 2 3 2 3 3 3 4 5 7 5 6 14 20 16 6 4 5 7 6 5 5 2 2 2 3 4 2 5 4 2 4 1 2 2 3 3 5 8 7 10 16 12 8 10 8 4 6 9 10 12 13 13 13 12 12 12 9 7
4 4 5 8 14 18 24 29 23 11 3 4 8 8 5 4 4 4 2 2 1 0 1 5 5 4 5 6 6 4 3 4 3 2 3 3 4 4 5 4 5 9 17 16 9 5 3 6 6 2 2 1 2 1 4 3 1 1 1 2 1 3 4 3 4 3 5 9 8 10 12 10 9 7 7 8 8 9 10 10 10 12 13 12 12 12 8 6
3 3 2 4 12 21 28 26 15 6 4 5 6 6 3 2 4 5 5 4 2 2 4 6 5 5 7 8 9 6 3 4 2 2 3 3 5 2 2 2 4 4 8 10 8 6 2 5 8 2 2 1 2 4 7 8 5 3 2 3 3 2 2 1 2 2 4 7 7 7 9 10 9 3 1 6 5 7 8 7 9 11 12 12 11 9 8 8
3 3 2 7 18 27 26 15 5 4 4 3 5 6 4 2 4 5 5 6 5 3 3 4 5 5 6 6 7 5 2 2 2 3 3 5 7 4 2 3 4 5 4 1 4 4 1 3 6 1 0 4 5 4 6 10 9 7 7 8 7 6 3 3 6 5 3 5 6 8 9 9 9 6 4 6 5 5 7 7 8 10 11 11 11 11 10 9
4 4 3 13 27 31 20 5 3 4 3 4 4 4 3 3 5 5 5 4 5 3 2 3 6 6 6 7 8 7 4 3 5 5 4 7 9 7 2 2 3 5 5 2 4 3 1 1 4 4 4 6 6 4 2 6 5 2 4 5 6 6 5 6 9 6 4 6 6 8 10 7 9 15 14 12 10 8 7 9 9 10 12 12 13 12 9 8
3 3 3 18 33 30 11 3 5 4 4 3 2 3 3 3 4 5 6 6 5 5 4 5 7 8 9 9 8 8 6 6 8 9 8 7 9 11 11 9 7 4 4 3 3 2 2 1 2 5 5 5 7 6 3 1 2 1 3 2 3 4 5 7 7 4 6 9 7 9 11 6 7 14 14 12 12 9 6 8 8 9 11 10 11 9 7 9
3 2 1 16 32 25 6 4 6 5 5 4 4 6 4 3 5 7 8 7 6 5 5 7 8 8 8 6 6 7 7 6 8 10 9 7 7 12 16 16 13 7 2 4 4 0 2 1 1 1 5 6 6 7 7 4 2 2 3 4 5 6 7 6 3 3 6 9 10 12 11 6 8 13 13 15 18 16 13 10 7 8 8 7 8 8 7 8
2 3 1 9 21 15 4 5 7 6 7 8 10 10 7 5 6 11 13 10 7 7 6 5 5 6 7 7 8 10 11 10 8 7 8 7 5 7 13 16 15 12 10 10 9 5 4 4 4 5 8 8 8 7 7 5 2 1 2 5 7 10 11 9 5 6 8 10 13 12 10 10 11 12 16 21 23 23 22 16 11 10 9 8 8 9 8 8
2 3 2 4 7 6 4 4 6 7 7 8 9 9 12 12 7 9 12 11 11 11 9 4 1 3 6 10 12 12 13 13 11 7 6 7 6 4 8 11 12 12 12 11 10 6 2 5 9 13 14 13 14 13 8 5 4 6 9 11 11 11 13 10 7 9 11 11 13 13 15 18 15 13 18 23 25 26 25 20 15 13 12 11 11 9 9 10
2 3 3 2 3 4 5 5 7 8 8 8 6 5 11 15 9 7 9 9 9 10 8 7 6 7 8 11 13 13 13 14 14 13 11 10 8 6 5 6 8 10 10 8 8 6 2 5 12 18 20 19 18 19 16 12 13 15 17 19 19 17 15 13 12 14 14 12 13 15 19 21 18 17 21 25 26 27 25 22 18 15 13 13 12 9 10 12
3 2 2 3 2 3 4 4 5 6 7 8 7 6 12 15 12 8 6 6 7 7 5 6 11 16 17 16 14 12 11 12 13 14 14 12 10 8 7 7 9 10 9 6 6 6 4 8 13 17 22 21 20 21 21 19 19 20 21 22 23 23 21 19 19 20 17 15 16 17 20 22 19 18 23 26 28 28 25 23 19 14 13 15 15 12 11 12
2 2 3 4 3 3 4 3 4 6 6 6 4 5 8 11 11 8 3 3 4 6 8 10 13 17 19 20 16 13 13 13 14 14 11 10 11 10 9 10 9 9 10 7 5 5 4 8 12 16 20 20 21 23 23 24 23 21 21 22 22 23 23 22 22 22 22 22 22 21 23 24 19 18 23 26 26 23 20 20 19 18 21 22 20 17 15 15
2 2 2 3 2 4 5 4 4 5 5 5 4 4 5 7 8 7 4 2 3 2 6 11 11 8 9 10 12 13 13 11 12 10 7 8 7 5 6 7 6 6 8 7 4 5 7 9 11 13 14 15 19 21 21 22 23 23 23 23 22 23 23 23 22 20 20 23 24 25 26 22 17 19 24 24 21 17 17 21 23 24 26 25 22 18 15 15
3 2 2 2 2 4 4 3 3 4 4 4 4 4 5 5 5 6 4 5 6 4 5 7 8 8 8 8 9 9 9 9 11 9 9 8 7 6 6 6 6 5 4 5 4 5 7 8 8 9 10 11 14 18 21 22 23 24 24 23 23 23 21 21 20 19 20 22 24 24 21 17 16 20 23 22 21 20 21 24 25 25 27 26 22 19 14 13
3 3 2 1 3 5 4 2 2 3 5 5 5 4 4 3 6 7 4 3 3 2 4 7 7 6 7 8 8 7 9 10 10 9 9 10 10 11 11 10 11 9 5 3 3 3 6 7 7 8 10 9 11 17 20 18 16 16 17 22 27 27 24 22 20 21 22 21 19 17 16 16 18 18 19 20 22 22 21 22 22 24 25 23 19 18 16 16
Wind_Direction
7 6 4 5 5 5 6 6 8 9 10 9 8 8 7 8 6 4 2 2 2 359 359 356 349 342 332 313 288 272 272 275 282 278 252 255 261 245 250 245 234 245 239 209 179 177 184 195 219 212 200 213 186 195 207 188 113 66 94 161 234 225 217 207 213 237 198 219 239 246 202 163 237 266 239 332 270 207 219 248 249 275 10 63 138 142 149 156
357 357 356 356 356 357 357 357 359 0 2 2 3 2 2 3 1 0 358 356 356 354 354 353 350 343 337 325 301 286 279 278 286 275 262 263 260 248 247 244 251 254 232 199 181 182 171 194 229 207 152 186 215 178 182 212 126 127 152 187 228 214 224 223 225 252 244 209 204 227 211 179 207 207 139 240 259 243 221 254 228 227 320 75 126 140 149 156
348 349 350 350 350 350 349 349 350 351 353 354 354 354 355 356 355 356 355 353 352 351 349 348 346 343 340 328 312 304 292 295 294 272 273 269 250 242 237 236 245 245 229 200 185 201 212 265 246 187 151 232 242 157 167 250 195 183 165 212 244 223 245 274 262 235 228 213 179 254 212 193 226 180 138 220 253 245 219 232 199 216 225 169 151 149 154 161
342 343 344 345 345 344 343 344 344 344 345 346 346 346 346 347 349 349 349 349 348 348 346 344 341 340 340 332 321 311 320 338 289 263 294 286 243 232 225 228 231 233 233 206 204 223 247 289 295 168 159 239 264 131 171 226 203 190 166 206 239 221 266 275 262 210 181 139 142 252 353 272 250 166 170 179 243 260 229 222 206 215 215 180 174 168 165 169
339 338 340 340 340 340 339 339 339 339 339 339 340 340 340 339 340 341 342 343 342 344 342 340 335 332 336 337 325 310 7 15 289 290 325 296 232 222 217 221 222 223 224 211 217 225 254 279 343 59 160 234 269 125 211 218 179 201 210 217 235 235 272 267 252 216 171 107 126 274 296 262 245 172 195 172 217 247 217 218 214 218 214 179 178 178 173 177
338 337 337 335 336 336 335 336 336 336 334 334 335 335 336 335 335 335 335 336 335 336 336 335 332 328 331 338 317 293 67 307 279 313 324 302 217 214 208 215 215 216 215 209 209 196 244 243 84 91 200 232 233 212 241 223 171 221 249 232 237 236 249 263 258 233 199 174 211 221 228 245 273 260 224 191 227 238 195 200 205 219 221 186 176 175 178 185
338 335 334 333 333 333 333 334 333 333 331 329 329 330 331 331 332 332 332 331 329 330 331 331 329 321 317 317 233 63 96 252 271 283 289 273 210 208 202 210 210 210 208 197 188 179 198 193 196 198 196 247 227 221 254 246 175 212 255 264 255 246 243 261 267 237 207 210 222 208 309 271 240 255 248 215 237 240 222 223 206 211 201 176 171 176 188 192
336 334 333 333 332 333 334 333 332 331 328 326 325 325 326 327 327 327 329 328 327 328 328 328 326 313 259 198 179 8 348 254 271 270 255 225 201 200 198 206 207 209 207 199 192 177 169 198 223 209 225 248 226 239 264 324 206 218 241 263 271 268 260 274 285 258 234 229 225 219 274 247 227 258 291 249 248 243 227 239 235 218 154 159 179 188 194 198
334 332 332 332 332 334 334 333 332 329 327 325 323 322 322 323 323 322 322 323 325 324 326 327 322 304 237 194 118 358 262 250 268 255 228 210 200 199 200 204 205 208 210 213 207 193 171 204 226 201 209 241 245 275 271 353 263 225 228 259 285 282 278 288 290 272 255 238 187 207 254 250 235 295 281 255 249 245 227 232 237 225 198 183 189 194 195 201
332 331 331 330 332 333 334 333 331 328 326 323 322 321 321 322 320 316 314 315 319 318 323 325 314 293 225 190 114 270 259 256 262 239 220 210 204 204 205 207 208 208 212 221 219 213 196 209 223 171 183 246 256 274 255 204 238 229 243 280 276 276 283 276 274 274 264 242 188 203 251 264 234 183 267 258 240 231 228 235 234 217 220 209 197 200 198 203
333 334 332 331 333 335 336 335 332 330 326 324 323 321 321 321 318 313 309 307 310 311 316 318 306 263 210 176 149 225 259 259 253 233 219 213 209 213 213 212 212 209 215 233 237 231 223 226 202 125 209 249 261 290 275 238 258 285 335 316 285 292 302 275 268 272 266 250 202 191 251 285 292 181 247 256 236 191 216 234 234 217 225 218 207 207 200 209
333 336 335 335 337 339 341 339 337 333 330 329 326 324 323 320 317 312 306 302 301 304 305 305 286 227 198 191 215 238 256 255 252 241 223 216 213 216 216 215 217 214 215 227 251 245 238 239 175 158 241 211 289 299 261 266 328 288 15 319 287 321 306 273 267 257 234 225 181 151 289 286 240 223 242 253 251 225 231 240 235 224 228 225 219 214 208 217
332 335 335 336 339 343 345 342 339 336 334 333 329 329 325 319 317 310 303 298 293 295 295 287 253 205 187 251 242 243 250 248 247 242 227 219 216 218 217 216 221 223 221 225 246 259 249 238 180 189 239 189 258 277 226 335 352 277 357 239 281 331 295 269 259 240 230 201 149 131 273 266 244 240 245 254 253 239 242 245 238 230 231 228 226 222 222 222
330 332 333 334 338 343 345 344 340 337 336 334 331 330 325 320 315 305 297 290 286 286 282 259 211 183 176 251 259 250 244 240 237 234 226 217 211 214 217 216 222 225 227 234 242 257 251 231 156 175 271 204 245 304 341 340 319 276 310 221 259 294 275 274 240 195 213 195 150 140 225 257 258 257 251 252 243 226 230 241 236 232 233 230 228 226 231 226
328 329 331 333 337 342 345 344 339 337 336 332 330 329 325 320 311 300 290 280 276 271 258 220 189 162 65 270 265 257 238 231 233 233 228 218 208 208 213 211 215 216 219 229 233 240 222 185 119 145 282 270 248 318 331 330 301 247 251 277 264 204 261 282 267 199 195 225 162 150 205 256 262 267 262 251 234 217 224 237 235 233 234 231 231 228 233 235
323 326 329 332 336 342 345 343 340 338 334 330 328 326 323 319 307 293 284 276 271 252 219 183 189 181 309 280 263 256 227 222 234 232 224 217 213 210 201 193 195 195 200 214 211 200 167 135 134 163 224 280 146 133 23 346 305 278 203 249 260 231 266 289 286 230 176 164 190 195 209 250 258 268 271 262 230 218 222 237 236 234 236 230 233 232 233 241
320 324 327 331 334 340 344 342 340 337 333 329 326 325 322 316 300 288 283 271 254 216 185 166 174 185 259 275 276 269 219 214 224 214 207 208 209 198 172 165 181 180 169 177 175 162 144 135 181 159 228 245 158 119 62 295 270 287 227 234 252 245 261 274 292 314 149 150 202 223 228 245 253 268 285 285 244 215 218 233 235 233 237 233 233 236 236 240
319 323 327 331 335 342 344 342 341 338 333 328 326 324 319 310 296 288 261 165 126 112 192 257 82 160 254 248 244 247 186 201 206 198 200 199 195 187 171 159 159 145 105 54 171 147 152 162 136 150 297 231 175 141 173 235 238 240 230 234 256 248 253 258 269 245 161 172 205 222 237 249 258 263 269 273 259 230 225 228 234 234 236 236 235 236 238 239
318 323 327 332 338 344 345 345 344 340 335 329 329 326 315 312 314 12 133 145 126 100 209 223 171 167 256 242 223 205 145 175 184 194 196 190 190 188 183 188 116 123 108 43 246 174 158 83 88 142 250 227 199 181 203 229 232 233 239 244 254 257 257 255 262 226 178 192 215 219 236 243 253 256 252 258 258 253 248 238 238 240 239 239 237 237 239 238
318 322 326 332 338 343 345 346 345 345 345 341 341 340 336 359 2 31 90 174 212 227 226 190 189 216 282 271 167 163 168 175 189 203 193 186 179 170 183 131 77 113 170 161 202 197 157 164 166 197 231 229 205 198 217 232 240 250 257 258 256 258 265 259 264 249 187 196 224 219 236 242 248 255 249 248 252 256 256 249 241 239 240 243 241 243 243 241
318 319 325 330 334 340 343 345 346 353 359 357 358 1 46 38 317 297 326 274 254 252 259 231 210 227 252 230 173 172 174 206 224 208 189 182 160 153 187 140 124 216 205 169 204 237 154 178 209 219 231 233 206 203 221 234 241 251 252 260 261 248 263 263 258 256 193 196 247 232 242 249 247 256 257 245 236 244 250 249 248 240 235 242 246 248 249 247
314 316 322 324 329 336 340 343 346 360 4 3 14 35 71 18 331 253 306 288 276 255 251 252 237 240 248 244 219 187 179 234 238 203 182 174 159 179 186 156 182 204 172 176 246 259 199 216 226 226 234 246 234 216 222 232 234 244 247 257 263 248 268 269 246 254 205 186 255 248 245 253 249 255 260 251 235 235 241 243 250 249 240 244 246 246 249 251
308 310 318 319 325 331 337 340 341 2 1 359 19 38 13 358 347 165 170 267 290 263 237 241 238 234 237 247 226 190 206 229 228 218 181 168 170 196 168 176 194 168 161 196 214 221 223 231 230 228 231 241 248 240 232 251 249 240 243 252 260 252 265 268 244 251 227 204 257 263 257 257 255 264 263 253 244 241 244 243 249 253 247 247 248 245 248 249
302 306 311 313 320 326 334 336 336 356 352 357 36 19 360 351 321 324 298 245 278 264 240 227 221 216 222 233 203 189 221 225 208 215 180 168 155 172 180 183 171 177 211 211 210 223 239 233 215 216 221 228 243 244 229 253 260 243 234 233 251 250 244 255 270 305 291 277 282 280 284 269 233 248 257 253 245 244 247 247 251 253 246 249 256 253 248 246
298 300 304 308 313 321 330 332 336 343 342 7 62 358 354 348 310 355 1 283 279 279 277 233 210 224 225 221 182 182 245 248 207 191 173 175 165 151 205 182 160 215 224 223 221 234 249 236 186 198 220 224 233 242 216 215 252 259 227 213 237 248 247 256 286 331 315 293 280 243 280 275 207 219 244 251 247 246 244 242 246 250 246 245 254 257 252 245
293 294 297 301 304 316 330 334 328 334 338 56 20 349 347 341 315 334 32 326 281 258 288 202 183 216 216 197 154 141 350 280 243 156 167 184 184 157 192 189 195 230 213 222 237 237 241 222 188 202 220 218 221 242 218 201 239 270 227 207 229 244 255 264 277 310 269 267 273 149 241 277 242 210 231 235 240 248 247 240 242 247 247 239 239 251 253 243
282 286 290 291 295 312 328 318 319 330 342 336 337 339 337 333 306 294 331 338 290 200 156 223 210 144 175 190 151 128 226 256 36 101 164 185 196 161 199 209 209 219 173 162 258 241 216 206 201 212 220 212 215 242 222 189 221 268 234 197 217 236 252 259 241 223 237 276 286 146 132 286 278 236 206 211 222 240 248 247 247 244 243 240 236 243 248 239
272 277 281 281 285 296 299 298 312 321 310 319 328 331 335 331 288 315 57 287 279 136 133 240 280 19 47 314 191 144 215 259 87 306 329 46 178 143 215 221 192 200 163 153 235 254 190 199 208 203 207 210 215 234 208 169 209 258 117 171 182 205 231 117 145 234 305 327 283 195 123 289 280 252 182 200 210 221 237 240 243 244 239 239 238 240 245 239
271 268 269 273 274 276 281 284 286 286 305 330 335 333 342 330 292 40 98 251 274 102 69 156 162 300 26 40 262 205 21 12 143 270 338 23 325 88 204 224 175 240 261 198 232 263 208 216 204 168 184 218 214 228 172 161 216 241 93 81 57 56 48 64 69 69 36 306 263 192 146 223 281 274 159 188 209 209 227 232 234 236 236 240 240 238 242 240
273 268 266 259 249 255 264 259 256 270 315 340 347 340 334 317 35 56 242 249 296 272 269 97 200 209 106 121 256 247 215 309 348 2 6 77 1 23 176 216 109 239 282 277 258 257 242 324 218 173 193 204 151 94 108 144 207 148 79 47 23 6 24 48 14 69 47 276 241 179 172 181 273 288 136 169 207 199 209 221 234 239 238 244 244 237 234 232
277 277 269 250 239 238 223 231 246 246 326 356 8 14 337 359 75 152 239 242 310 268 118 127 241 114 142 174 232 227 195 244 115 140 194 145 38 28 68 335 75 55 325 298 278 265 255 257 231 225 188 133 100 82 359 20 83 91 83 66 11 326 13 27 353 56 216 265 220 181 180 180 234 270 113 249 252 204 205 203 221 236 238 243 246 242 232 228
274 277 272 258 249 234 212 228 224 185 192 13 43 58 63 25 226 215 240 322 314 234 173 192 201 165 206 233 298 205 175 219 192 171 183 166 163 178 192 200 160 80 292 250 271 289 263 232 212 219 202 147 123 99 341 348 51 94 100 103 26 301 345 356 313 62 222 259 228 189 177 199 241 261 274 276 283 231 221 213 215 224 233 241 246 245 237 225
264 271 269 260 251 236 228 229 196 182 210 129 83 47 75 149 244 220 199 243 237 209 160 172 180 177 164 103 272 218 183 232 194 179 190 158 177 228 247 229 176 187 251 220 264 313 286 268 200 159 282 181 155 174 239 277 176 154 148 146 168 217 253 261 260 269 262 266 251 190 163 240 277 280 226 235 237 222 214 217 220 217 225 236 241 248 244 218
259 261 263 260 254 247 240 226 206 207 207 137 107 59 106 203 254 217 169 214 238 253 277 103 143 177 178 205 228 191 191 246 179 163 189 143 167 235 245 237 210 208 214 205 262 187 248 287 197 162 225 185 175 203 209 175 156 181 159 143 176 183 178 216 243 260 275 285 278 185 156 247 292 277 214 223 239 236 219 222 226 223 233 242 248 260 253 219
263 255 257 255 246 243 235 223 219 218 191 123 96 89 169 222 255 254 220 237 261 288 299 343 111 184 239 258 255 209 211 248 171 149 184 174 187 210 197 206 205 193 152 201 250 175 219 271 223 168 165 165 180 217 202 137 93 219 132 121 211 196 182 220 254 245 248 313 286 228 195 239 269 268 249 242 258 261 238 233 231 234 246 254 258 255 240 218
272 259 253 240 233 234 228 223 219 207 181 122 100 165 211 226 204 183 227 232 243 319 323 320 140 188 255 274 270 252 224 238 201 157 205 206 204 213 200 197 195 190 183 194 227 207 232 276 235 148 6 178 186 219 183 163 206 189 135 181 216 163 165 210 273 269 178 260 270 259 249 272 308 291 269 240 252 262 262 255 240 237 242 239 242 242 231 219
278 261 243 228 231 234 226 219 206 188 174 136 161 204 221 227 209 204 243 344 270 339 345 297 232 198 239 243 249 247 228 241 207 170 217 224 223 215 205 217 193 189 199 206 226 239 235 264 231 171 230 249 197 126 311 267 158 133 178 214 162 56 115 157 235 304 246 248 263 269 269 281 295 283 308 37 264 260 261 256 244 240 241 238 243 243 231 220
275 251 244 239 238 235 222 210 190 167 148 167 214 226 217 206 206 207 243 294 280 318 45 261 253 230 248 269 277 264 228 239 189 179 219 223 234 201 183 221 204 192 206 211 227 264 229 252 257 183 194 252 72 97 291 298 137 140 206 212 103 127 225 156 171 207 237 246 255 265 271 276 255 261 301 317 250 241 238 237 237 241 242 244 248 246 237 220
260 246 265 243 231 224 208 193 172 147 144 195 220 231 212 215 228 209 226 275 266 71 205 233 236 248 274 275 275 274 218 211 195 208 228 219 240 207 165 228 231 207 212 205 209 242 211 235 251 198 183 282 55 168 210 227 226 97 6 347 60 183 184 180 181 167 221 243 254 262 268 275 257 253 289 279 245 238 244 239 238 241 239 241 245 246 238 216
229 243 273 173 193 200 187 172 155 151 201 201 220 228 210 249 255 233 226 217 197 183 222 233 223 232 258 263 264 268 237 223 215 224 237 236 259 289 52 335 333 296 238 211 217 238 205 232 239 237 18 264 197 202 187 183 189 175 207 244 253 222 174 226 220 169 216 240 251 256 256 268 265 221 305 295 264 233 241 241 244 245 240 246 253 251 238 220
202 245 247 158 176 175 162 152 159 185 205 225 235 232 226 240 247 239 225 216 225 220 197 222 227 237 257 259 258 259 254 256 236 234 253 251 256 275 52 57 31 2 330 277 256 262 236 247 248 251 353 240 250 245 198 195 190 180 197 207 209 211 205 252 247 215 208 238 242 252 255 261 270 276 296 299 287 258 246 236 246 254 251 252 253 246 234 222
226 243 180 165 173 164 148 154 216 181 206 225 229 233 213 215 233 240 229 211 218 218 205 237 238 241 251 248 246 244 240 237 225 226 230 228 239 246 236 55 39 21 2 318 259 260 145 201 267 276 254 251 280 313 224 221 221 208 221 215 214 211 190 220 244 235 235 248 243 255 259 249 265 279 284 286 288 288 260 236 238 247 245 244 244 243 237 228
233 253 164 172 173 163 151 232 206 198 231 217 256 243 193 201 228 229 226 214 203 200 206 220 222 228 234 234 233 230 227 223 214 218 226 227 237 245 253 276 296 331 359 302 269 324 20 144 252 280 294 298 304 318 336 36 75 331 278 237 213 219 211 224 244 256 256 254 251 258 260 249 257 272 282 290 289 291 274 258 257 255 253 254 255 254 249 242
245 279 210 185 181 172 170 227 204 222 225 217 251 237 219 240 229 232 236 215 190 196 217 220 215 220 225 221 220 216 214 227 227 223 224 224 229 237 245 257 262 255 216 206 203 238 283 226 109 285 286 294 302 299 284 263 172 193 236 229 223 231 243 254 274 280 255 250 250 258 265 259 257 269 283 287 284 283 278 267 256 260 268 277 279 273 262 260
272 249 264 203 197 195 216 220 215 228 220 225 235 230 238 249 215 226 238 233 213 205 218 232 223 223 223 219 231 229 219 228 241 229 215 219 236 239 234 234 235 232 223 202 177 167 212 199 181 230 242 245 251 252 246 239 233 246 230 228 228 225 229 239 248 247 246 242 241 248 259 256 251 265 277 277 277 278 273 264 251 248 252 259 267 270 268 267
301 245 230 200 209 231 258 231 228 231 221 229 235 224 229 237 232 221 226 236 234 222 227 250 249 234 225 220 236 243 231 229 234 227 212 218 230 239 227 219 217 225 226 202 173 155 159 183 201 222 227 228 237 238 229 209 220 250 248 241 239 232 227 229 233 238 242 246 242 236 245 253 250 252 263 268 271 272 271 268 262 253 251 254 254 254 257 258
276 259 240 210 217 230 235 239 238 231 220 221 225 212 223 234 243 223 209 220 226 219 230 236 216 221 228 227 238 245 238 234 233 234 236 230 231 256 252 218 213 220 211 191 180 161 142 202 209 222 229 229 234 238 240 238 238 245 249 249 249 245 236 231 234 238 239 249 250 237 237 247 248 244 252 260 264 266 269 270 267 262 258 255 251 246 245 250
259 263 282 308 292 236 230 243 258 261 248 233 227 230 238 238 234 223 215 223 217 200 210 230 220 222 229 232 241 249 245 244 242 239 242 239 235 252 256 229 223 214 188 181 195 168 183 227 217 224 234 232 233 239 242 245 246 244 245 247 248 247 243 238 239 241 238 243 251 247 243 247 247 243 246 251 255 260 267 271 273 274 269 262 260 259 256 259
288 271 296 335 324 286 291 303 312 306 286 271 255 233 243 248 245 248 258 262 241 200 204 230 227 224 231 234 237 243 239 242 247 240 242 248 236 234 246 246 241 219 191 196 208 171 202 236 218 226 239 234 231 235 235 238 245 246 245 244 244 247 247 244 244 245 244 248 254 257 256 254 251 248 248 249 252 259 269 277 280 278 272 267 265 261 259 265
287 272 294 354 332 295 302 304 312 314 298 290 278 242 251 266 272 294 313 270 285 272 236 252 260 266 274 265 257 255 251 263 277 276 297 308 278 254 257 252 257 245 207 207 216 194 216 230 218 226 242 236 230 233 232 233 239 243 245 245 245 248 249 249 250 249 250 253 254 254 256 256 254 254 254 255 260 266 271 274 276 274 271 271 271 269 262 261
277 302 298 319 300 275 272 273 293 305 281 256 248 258 272 278 302 329 312 232 235 259 286 308 325 336 333 318 303 297 303 317 315 312 321 316 297 298 299 281 282 282 223 203 217 202 211 231 232 236 248 237 224 228 233 232 234 238 240 241 244 244 244 243 244 243 244 250 252 252 253 254 250 250 255 260 263 263 263 265 268 270 271 273 275 275 268 256
290 316 279 256 274 256 256 292 298 278 266 253 263 292 305 336 2 356 324 263 239 279 352 357 345 332 321 314 317 325 324 314 300 292 290 279 272 274 275 277 279 275 257 235 241 208 206 227 230 231 248 245 220 225 234 233 235 234 226 227 234 238 241 243 244 243 241 243 248 248 246 247 248 250 254 257 257 255 255 256 258 263 268 273 276 276 270 259